Location: Burgwalden
(48.2830°N, 10.7576°E)
Time: 01:20:48
(UTC+00:00)

Cosmos 2082 Rocket - Pass Details

Date: 26 September 2023
Orbit: 834 x 852 km, 71.0° (Epoch: 04 December)

Event Time Altitude Azimuth Distance (km) Brightness Sun altitude
Exits shadow 02:43:05 37° 303° (WNW) 1,314 2.9 -24.1°
Maximum altitude 02:43:20 37° 309° (NW) 1,310 3.0 -24.1°
Drops below altitude 10° 02:48:36 10° 16° (NNE) 2,491 5.2 -23.3°
Sets 02:51:16 0° 25° (NNE) 3,428 6.1 -22.9°
